EW5711 Weather Reports


Display with metric or nautical units.
time (UTC)temp
F
wind
direction
speed
MPH
gust
MPH
rain 1hr
in
rain 24hr
in
rain mn
in
humidity
%
barometer
mb
20260507223605 60 177 3.0 7.0 0.00 0.12 0.01 31 1028.2
20260507223107 60 147 3.0 7.0 0.00 0.12 0.01 31 1028.2
20260507222607 61 133 2.0 11.0 0.00 0.12 0.01 32 1028.1
20260507222119 61 204 4.0 11.0 0.00 0.12 0.01 31 1028.1
20260507221602 61 318 2.0 12.0 0.00 0.12 0.01 33 1028.0
20260507221102 61 113 3.0 12.0 0.00 0.12 0.01 31 1027.9
20260507220623 61 127 6.0 12.0 0.00 0.12 0.01 31 1027.9
20260507215601 61 116 2.0 10.0 0.00 0.17 0.01 32 1027.8
20260507215101 61 150 2.0 12.0 0.00 0.17 0.01 32 1027.8
20260507214606 61 124 1.0 12.0 0.00 0.17 0.01 32 1027.7
20260507214107 61 117 3.0 11.0 0.00 0.17 0.01 32 1027.9
20260507213609 61 116 4.0 14.0 0.00 0.17 0.01 31 1027.7
20260507213108 62 176 5.0 14.0 0.00 0.17 0.01 30 1027.8
20260507212607 62 144 3.0 8.0 0.00 0.17 0.01 31 1027.8
20260507212105 62 147 4.0 10.0 0.00 0.17 0.01 32 1027.9
20260507211604 62 103 2.0 10.0 0.00 0.17 0.01 34 1027.8
20260507211106 62 128 2.0 13.0 0.00 0.17 0.01 32 1027.8
20260507210601 62 148 5.0 13.0 0.00 0.17 0.01 31 1027.9
20260507205610 62 108 2.0 15.0 0.00 0.29 0.01 34 1027.7
20260507205111 62 140 5.0 15.0 0.00 0.29 0.01 32 1027.7
20260507204611 61 118 4.0 11.0 0.00 0.29 0.01 34 1027.7
20260507204158 61 144 2.0 10.0 0.00 0.29 0.01 34 1027.6
20260507203636 62 149 2.0 8.0 0.00 0.29 0.01 33 1027.6
20260507203117 63 109 3.0 11.0 0.00 0.29 0.01 32 1027.6
20260507202616 62 100 4.0 11.0 0.00 0.29 0.01 33 1027.5
20260507202113 62 101 5.0 10.0 0.00 0.29 0.01 32 1027.6
20260507201612 62 220 3.0 11.0 0.00 0.29 0.01 34 1027.7
20260507201105 63 144 6.0 11.0 0.00 0.29 0.01 32 1027.8
20260507200603 63 140 2.0 8.0 0.00 0.29 0.01 34 1027.7
20260507200127 63 130 3.0 11.0 0.00 0.29 0.01 34 1027.7
20260507195059 62 153 4.0 13.0 0.00 0.35 0.01 32 1027.9
20260507194613 63 150 6.0 12.0 0.00 0.35 0.01 35 1027.8
20260507194108 62 76 0.0 8.0 0.00 0.35 0.01 36 1027.8
20260507193626 62 142 3.0 10.0 0.00 0.35 0.01 35 1027.8
20260507193107 63 117 3.0 10.0 0.00 0.35 0.01 35 1028.0
20260507192602 62 263 4.0 9.0 0.00 0.35 0.01 36 1027.9
20260507192121 62 124 3.0 9.0 0.00 0.35 0.01 36 1028.1
20260507191637 61 121 3.0 14.0 0.00 0.35 0.01 35 1028.1
20260507191121 61 248 5.0 14.0 0.00 0.35 0.01 34 1028.2
20260507190601 62 161 4.0 13.0 0.00 0.35 0.01 33 1028.2
20260507190119 62 105 4.0 14.0 0.00 0.35 0.01 34 1028.2
20260507185619 62 261 5.0 14.0 0.00 0.36 0.01 34 1028.3
20260507185114 62 148 5.0 14.0 0.00 0.36 0.01 33 1028.2
20260507184616 63 121 3.0 13.0 0.00 0.36 0.01 35 1028.2
20260507184117 62 136 4.0 13.0 0.00 0.36 0.01 34 1028.3
20260507183604 62 166 5.0 14.0 0.00 0.36 0.01 34 1028.3
20260507183140 62 128 5.0 14.0 0.00 0.36 0.01 34 1028.3
20260507182602 62 81 2.0 14.0 0.00 0.36 0.01 38 1028.4
20260507182103 62 150 6.0 17.0 0.00 0.36 0.01 34 1028.6
20260507181607 62 196 8.0 17.0 0.00 0.36 0.01 35 1028.3
20260507181129 63 109 4.0 11.0 0.00 0.36 0.01 35 1028.3
20260507180609 63 101 4.0 10.0 0.00 0.36 0.01 37 1028.3
20260507180110 63 64 3.0 10.0 0.00 0.36 0.01 39 1028.3
20260507175609 62 120 1.0 10.0 0.00 0.36 0.01 38 1028.4
20260507175108 62 107 3.0 10.0 0.00 0.36 0.01 38 1028.2
20260507174606 61 189 2.0 16.0 0.00 0.36 0.01 37 1028.3
20260507174106 62 121 2.0 16.0 0.00 0.36 0.01 39 1028.4
20260507173607 61 149 5.0 10.0 0.00 0.36 0.01 37 1028.3
20260507173109 61 132 3.0 10.0 0.00 0.36 0.01 35 1028.4
20260507172601 61 118 5.0 10.0 0.00 0.36 0.01 36 1028.6
20260507172102 61 148 1.0 14.0 0.00 0.36 0.01 40 1028.4
20260507171605 61 113 6.0 15.0 0.00 0.36 0.01 41 1028.6
20260507171124 61 167 6.0 15.0 0.00 0.36 0.01 44 1028.6
20260507170606 61 172 1.0 14.0 0.00 0.36 0.01 45 1028.6
20260507170106 61 105 4.0 10.0 0.00 0.36 0.01 46 1028.7
20260507165559 60 81 2.0 10.0 0.00 0.36 0.01 50 1028.9
20260507165113 60 113 4.0 10.0 0.00 0.36 0.01 50 1029.1
20260507164603 61 110 1.0 11.0 0.00 0.36 0.01 51 1029.0
20260507164120 60 183 3.0 11.0 0.00 0.36 0.01 51 1029.1
20260507163635 60 135 4.0 11.0 0.00 0.36 0.01 50 1028.9
20260507163117 60 102 3.0 12.0 0.00 0.36 0.01 52 1029.0
20260507162610 60 140 4.0 12.0 0.00 0.36 0.01 53 1029.1
20260507162111 60 97 1.0 11.0 0.00 0.36 0.01 56 1029.1
20260507161611 59 151 4.0 11.0 0.00 0.36 0.01 52 1029.2
20260507161133 59 76 5.0 12.0 0.00 0.36 0.01 51 1029.3
20260507160603 60 124 5.0 12.0 0.00 0.36 0.01 51 1029.3
20260507160105 59 116 1.0 12.0 0.00 0.36 0.01 54 1029.3
20260507155604 60 126 4.0 12.0 0.00 0.36 0.01 51 1029.3
20260507155105 60 122 1.0 10.0 0.00 0.36 0.01 52 1029.4
20260507154628 60 199 1.0 13.0 0.00 0.36 0.01 55 1029.5
20260507154129 59 122 2.0 15.0 0.00 0.36 0.01 53 1029.5
20260507153608 60 129 2.0 6.0 0.00 0.36 0.01 52 1029.6
20260507153109 59 152 0.0 8.0 0.00 0.36 0.01 53 1029.6
20260507152609 60 248 3.0 9.0 0.00 0.36 0.01 52 1029.7
20260507152130 60 193 3.0 11.0 0.00 0.36 0.01 51 1029.8
20260507151611 60 163 3.0 10.0 0.00 0.36 0.01 53 1029.7
20260507151112 59 156 2.0 10.0 0.00 0.36 0.01 53 1029.9
20260507150612 58 140 1.0 8.0 0.00 0.36 0.01 56 1029.9
20260507150114 58 114 3.0 8.0 0.00 0.36 0.01 55 1030.1
20260507145612 59 161 2.0 7.0 0.00 0.36 0.01 56 1029.9
20260507145134 59 118 3.0 12.0 0.00 0.36 0.01 54 1029.9
20260507144632 59 137 3.0 12.0 0.00 0.36 0.01 54 1030.0
20260507144111 59 143 3.0 11.0 0.00 0.36 0.01 54 1030.0
20260507143632 58 144 4.0 8.0 0.00 0.36 0.01 53 1029.9
20260507143100 58 173 3.0 7.0 0.00 0.36 0.01 55 1029.9
20260507142108 58 215 4.0 8.0 0.00 0.36 0.01 55 1029.9
20260507141609 58 130 2.0 8.0 0.00 0.36 0.01 55 1029.8
20260507141109 58 166 1.0 4.0 0.00 0.36 0.01 57 1029.9
20260507140609 58 133 0.0 5.0 0.00 0.36 0.01 60 1029.9
20260507140108 57 114 1.0 7.0 0.00 0.36 0.01 57 1029.8
20260507135610 57 140 2.0 7.0 0.00 0.36 0.01 60 1029.9
20260507135111 57 110 0.0 5.0 0.00 0.36 0.01 59 1029.9
20260507134612 56 79 0.0 5.0 0.00 0.36 0.01 61 1030.0
20260507134111 56 126 1.0 6.0 0.00 0.36 0.01 62 1030.0
20260507133610 56 211 3.0 6.0 0.00 0.36 0.01 60 1030.1
20260507133133 56 95 2.0 6.0 0.00 0.36 0.01 60 1030.3
20260507132613 56 118 0.0 4.0 0.00 0.36 0.01 64 1030.2
20260507132134 55 123 1.0 6.0 0.00 0.36 0.01 62 1030.3
20260507131615 55 202 1.0 7.0 0.00 0.36 0.01 63 1030.4
20260507131137 55 124 1.0 7.0 0.00 0.36 0.01 65 1030.4
20260507130618 54 99 1.0 9.0 0.00 0.36 0.01 65 1030.5
20260507130100 54 224 1.0 10.0 0.00 0.36 0.01 67 1030.5
20260507125601 54 159 1.0 8.0 0.00 0.36 0.01 68 1030.4
20260507125102 53 189 3.0 8.0 0.00 0.36 0.01 67 1030.5
20260507124605 54 113 0.0 3.0 0.00 0.36 0.01 70 1030.5
20260507124125 53 211 1.0 4.0 0.00 0.36 0.01 72 1030.5
20260507123605 52 119 0.0 4.0 0.00 0.36 0.01 72 1030.6
20260507123108 52 124 0.0 4.0 0.00 0.36 0.01 74 1030.6
20260507122607 51 140 1.0 2.0 0.00 0.36 0.01 73 1030.8
20260507122128 51 102 0.0 1.0 0.00 0.36 0.01 75 1030.7
20260507121630 51 128 0.0 2.0 0.00 0.36 0.01 75 1030.7
20260507121109 50 119 0.0 3.0 0.00 0.36 0.01 76 1030.8
20260507120631 50 126 0.0 4.0 0.00 0.36 0.01 76 1030.7
20260507120112 50 169 1.0 4.0 0.00 0.36 0.01 76 1030.6
20260507115611 50 115 1.0 3.0 0.00 0.36 0.01 76 1030.8
20260507115111 50 180 1.0 3.0 0.00 0.36 0.01 77 1030.6
20260507114613 49 145 0.0 2.0 0.00 0.36 0.01 79 1030.5
20260507114113 49 142 0.0 5.0 0.00 0.36 0.01 79 1030.3
20260507113614 48 172 0.0 5.0 0.00 0.36 0.01 79 1030.4
20260507113137 49 127 0.0 1.0 0.00 0.36 0.01 79 1030.3
20260507112634 49 138 0.0 1.0 0.00 0.36 0.01 79 1030.4
20260507112136 48 151 0.0 1.0 0.00 0.36 0.01 79 1030.7
20260507111618 48 134 0.0 3.0 0.00 0.36 0.01 79 1030.7
20260507111138 48 126 0.0 3.0 0.00 0.36 0.01 79 1030.7
20260507110618 48 88 0.0 4.0 0.00 0.36 0.01 79 1030.4
20260507110120 48 116 0.0 7.0 0.00 0.36 0.01 79 1030.3
20260507105559 48 200 0.0 7.0 0.00 0.36 0.01 79 1030.1
20260507105059 48 103 1.0 4.0 0.00 0.36 0.01 79 1030.2
20260507104620 48 131 0.0 4.0 0.00 0.36 0.01 79 1030.0
20260507104059 48 147 0.0 4.0 0.00 0.36 0.01 79 1030.1
20260507103600 48 129 0.0 1.0 0.00 0.36 0.01 79 1030.2
20260507103104 48 129 0.0 1.0 0.00 0.36 0.01 79 1030.1
20260507102604 48 129 0.0 1.0 0.00 0.36 0.01 79 1030.3
20260507102105 48 155 0.0 1.0 0.00 0.36 0.01 79 1030.1
20260507101608 48 129 0.0 1.0 0.00 0.36 0.01 79 1030.2
20260507101107 48 131 0.0 1.0 0.00 0.36 0.01 79 1030.2
20260507100607 48 138 0.0 1.0 0.00 0.36 0.01 79 1030.3
20260507100108 48 117 0.0 3.0 0.00 0.36 0.01 79 1030.4
20260507095609 48 145 1.0 3.0 0.00 0.36 0.01 79 1030.1
20260507095130 48 173 0.0 3.0 0.00 0.36 0.01 79 1030.2
20260507094612 48 154 0.0 0.0 0.00 0.36 0.01 78 1030.4
20260507094112 48 154 0.0 0.0 0.00 0.36 0.01 78 1030.2
20260507093612 48 154 0.0 2.0 0.00 0.36 0.01 78 1030.0
20260507092100 48 85 0.0 1.0 0.01 0.36 0.01 79 1030.3
20260507091603 48 128 0.0 1.0 0.01 0.36 0.01 78 1030.0
20260507091104 48 189 0.0 1.0 0.01 0.36 0.01 78 1029.9
20260507090604 48 189 0.0 1.0 0.01 0.36 0.01 78 1029.8
20260507090128 48 139 0.0 1.0 0.01 0.36 0.01 78 1029.8
20260507085607 48 202 0.0 0.0 0.01 0.36 0.01 79 1029.9
20260507085107 48 202 0.0 0.0 0.01 0.36 0.01 79 1030.0
20260507084609 49 202 0.0 1.0 0.01 0.36 0.01 79 1029.5
20260507084109 49 140 0.0 4.0 0.01 0.36 0.01 79 1029.5
20260507083608 49 164 0.0 0.0 0.01 0.36 0.01 79 1029.6
20260507083110 49 164 0.0 1.0 0.01 0.36 0.01 79 1029.6
20260507082609 49 164 0.0 1.0 0.00 0.35 0.00 79 1029.7
20260507082110 50 133 0.0 3.0 0.00 0.35 0.00 79 1029.2
20260507081608 50 102 0.0 6.0 0.00 0.35 0.00 79 1029.4
20260507081107 50 209 2.0 6.0 0.00 0.35 0.00 78 1029.5
20260507080608 50 119 1.0 6.0 0.00 0.35 0.00 78 1029.6
20260507075612 50 130 1.0 7.0 0.00 0.35 0.00 79 1029.7
20260507075110 50 142 2.0 7.0 0.00 0.35 0.00 78 1029.5
20260507074612 51 142 1.0 6.0 0.00 0.35 0.00 79 1029.3
20260507074113 51 106 1.0 8.0 0.00 0.35 0.00 79 1029.4
20260507073612 51 118 2.0 8.0 0.00 0.35 0.00 79 1029.3
20260507073116 51 117 0.0 5.0 0.00 0.35 0.00 79 1029.2
20260507072616 51 158 1.0 5.0 0.00 0.35 0.00 79 1029.3
20260507072117 51 180 1.0 6.0 0.00 0.35 0.00 79 1029.3
20260507071600 51 132 0.0 6.0 0.00 0.35 0.00 79 1029.3
20260507071100 51 188 1.0 5.0 0.00 0.35 0.00 79 1029.4
20260507070601 51 98 0.0 5.0 0.00 0.35 0.00 79 1029.0
20260507070104 51 226 1.0 5.0 0.00 0.35 0.00 79 1029.0
20260507065617 51 125 0.0 5.0 0.00 0.35 0.00 79 1029.1
20260507065118 51 139 0.0 8.0 0.00 0.35 0.00 79 1029.1
20260507064600 51 158 1.0 8.0 0.00 0.35 0.00 79 1029.1
20260507064100 51 124 2.0 6.0 0.00 0.35 0.00 79 1028.8
20260507063601 51 138 0.0 5.0 0.00 0.35 0.00 79 1028.9
20260507063105 51 60 0.0 5.0 0.00 0.35 0.00 79 1028.8
20260507062600 51 120 1.0 7.0 0.00 0.35 0.00 79 1028.8
20260507062101 51 116 2.0 7.0 0.00 0.35 0.00 79 1028.7
20260507061603 52 108 1.0 6.0 0.00 0.35 0.00 79 1028.8
20260507061103 52 156 0.0 4.0 0.00 0.35 0.00 79 1028.8
20260507060604 52 147 0.0 4.0 0.00 0.35 0.00 79 1028.9
20260507060106 52 192 2.0 4.0 0.00 0.35 0.00 79 1028.9
20260507055624 52 351 0.0 3.0 0.00 0.35 0.00 79 1029.2
20260507055104 52 122 0.0 3.0 0.00 0.35 0.00 79 1029.2
20260507054626 52 145 1.0 3.0 0.00 0.35 0.00 79 1029.2
20260507054105 53 80 0.0 2.0 0.00 0.35 0.00 78 1029.1
20260507053620 53 138 0.0 4.0 0.00 0.35 0.00 78 1029.1
20260507053101 53 125 0.0 4.0 0.00 0.35 0.00 78 1029.2
20260507052620 53 106 0.0 2.0 0.00 0.35 0.00 78 1029.2
20260507052100 53 143 0.0 4.0 0.00 0.35 0.00 78 1029.0
20260507051602 54 95 0.0 6.0 0.00 0.35 0.00 78 1028.9
20260507051101 54 117 0.0 6.0 0.00 0.35 0.00 78 1028.7
20260507050602 54 122 0.0 4.0 0.00 0.35 0.00 78 1028.9
20260507050125 54 104 1.0 4.0 0.00 0.35 0.00 78 1028.9
20260507045604 54 75 1.0 4.0 0.00 0.35 0.00 78 1028.8
20260507045118 55 132 0.0 4.0 0.00 0.35 0.00 78 1028.7
20260507044600 55 147 1.0 7.0 0.00 0.35 0.00 78 1028.7
20260507044121 55 162 2.0 7.0 0.00 0.35 0.00 78 1028.9
20260507043601 55 65 1.0 4.0 0.00 0.35 0.00 78 1028.9
20260507043102 56 116 1.0 5.0 0.00 0.35 0.00 77 1029.1
20260507042601 56 121 2.0 5.0 0.00 0.35 0.00 77 1029.1
20260507042100 56 131 0.0 3.0 0.00 0.35 0.00 76 1028.9
20260507041602 57 200 1.0 3.0 0.00 0.35 0.00 75 1028.8
20260507041102 57 121 1.0 6.0 0.01 0.35 0.00 75 1028.7
20260507040623 57 136 1.0 6.0 0.01 0.35 0.00 75 1028.6
20260507040145 57 120 0.0 4.0 0.01 0.35 0.00 75 1028.6
20260507035617 57 150 0.0 6.0 0.01 0.35 0.35 75 1028.4
20260507035114 58 111 1.0 8.0 0.01 0.35 0.35 75 1028.4
20260507034615 58 94 2.0 9.0 0.01 0.35 0.35 75 1028.2
20260507034114 58 119 2.0 9.0 0.01 0.35 0.35 74 1028.2
20260507033616 58 85 0.0 8.0 0.01 0.35 0.35 73 1028.1
20260507033138 59 125 3.0 10.0 0.01 0.35 0.35 73 1028.1
20260507032617 59 96 4.0 10.0 0.01 0.35 0.35 72 1028.1
20260507032117 59 144 1.0 8.0 0.01 0.35 0.35 72 1028.1
20260507031601 60 105 0.0 4.0 0.00 0.34 0.34 71 1028.1
20260507031101 60 131 1.0 3.0 0.00 0.34 0.34 71 1027.9
20260507030624 60 50 0.0 2.0 0.00 0.34 0.34 71 1027.7
20260507030105 60 131 0.0 3.0 0.00 0.34 0.34 71 1027.6
20260507025605 60 119 0.0 3.0 0.00 0.34 0.34 71 1027.7
20260507025106 60 119 0.0 2.0 0.00 0.34 0.34 71 1027.6
20260507024608 60 87 0.0 2.0 0.00 0.34 0.34 71 1027.6
20260507024107 60 67 0.0 5.0 0.00 0.34 0.34 71 1027.6
20260507023607 60 60 1.0 5.0 0.00 0.34 0.34 72 1027.5
20260507023111 60 12 1.0 8.0 0.00 0.34 0.34 72 1027.6
20260507022611 60 52 0.0 8.0 0.00 0.34 0.34 72 1027.7
20260507022131 60 62 1.0 7.0 0.00 0.34 0.34 72 1027.6
20260507021611 60 50 1.0 5.0 0.00 0.34 0.34 72 1027.6
20260507021111 60 87 1.0 6.0 0.00 0.34 0.34 72 1027.7
20260507020613 60 3 2.0 6.0 0.00 0.34 0.34 72 1027.7
20260507015617 60 81 1.0 6.0 0.00 0.34 0.34 72 1027.8
20260507015138 60 108 0.0 8.0 0.00 0.34 0.34 72 1027.9
20260507014559 60 85 3.0 8.0 0.00 0.34 0.34 72 1028.0
20260507014059 60 51 2.0 9.0 0.00 0.34 0.34 72 1028.0
20260507013559 60 56 0.0 9.0 0.00 0.34 0.34 72 1028.0
20260507013103 60 83 2.0 10.0 0.00 0.34 0.34 72 1028.0
20260507012603 60 62 1.0 6.0 0.00 0.34 0.34 72 1028.0
20260507012124 60 79 1.0 9.0 0.00 0.34 0.34 72 1027.9
20260507011606 60 44 2.0 9.0 0.00 0.34 0.34 72 1028.0
20260507011105 60 36 2.0 9.0 0.00 0.34 0.34 72 1028.1
20260507010606 60 78 1.0 9.0 0.00 0.34 0.34 72 1028.0
20260507010108 60 31 4.0 8.0 0.00 0.34 0.34 72 1028.1
20260507005629 60 43 2.0 8.0 0.00 0.34 0.34 72 1028.0
20260507005110 60 99 2.0 8.0 0.00 0.34 0.34 72 1028.0
20260507004632 60 85 1.0 8.0 0.00 0.34 0.34 72 1028.1
20260507004112 60 63 2.0 11.0 0.01 0.34 0.34 72 1028.1
20260507003613 60 43 2.0 11.0 0.03 0.34 0.34 72 1028.1
20260507003115 60 90 4.0 11.0 0.03 0.34 0.34 71 1028.0
20260507002615 60 79 2.0 7.0 0.04 0.34 0.34 71 1027.9
20260507002116 60 87 2.0 7.0 0.04 0.34 0.34 71 1028.1
20260507001639 60 86 2.0 6.0 0.05 0.34 0.34 71 1028.0
20260507001059 60 66 1.0 5.0 0.05 0.34 0.34 71 1027.9
20260507000104 60 48 3.0 8.0 0.06 0.34 0.34 71 1027.7
20260506235601 60 56 2.0 6.0 0.06 0.34 0.34 72 1027.7
20260506235103 60 32 1.0 9.0 0.06 0.34 0.34 72 1027.7
20260506234606 60 65 1.0 12.0 0.06 0.34 0.34 72 1027.7
20260506234106 60 64 3.0 12.0 0.05 0.33 0.33 72 1027.9
20260506233608 60 39 2.0 8.0 0.03 0.31 0.31 72 1027.8
20260506232617 60 64 4.0 11.0 0.03 0.30 0.30 72 1027.8
20260506232118 60 61 3.0 8.0 0.03 0.30 0.30 72 1027.9
20260506231622 60 58 3.0 10.0 0.03 0.29 0.29 72 1028.1
20260506231100 60 57 2.0 12.0 0.04 0.29 0.29 72 1028.0
20260506230600 60 48 4.0 12.0 0.03 0.28 0.28 72 1027.9
20260506225604 60 41 1.0 6.0 0.04 0.28 0.28 72 1028.0
20260506225105 60 91 2.0 5.0 0.04 0.28 0.28 72 1028.1
20260506224607 60 60 1.0 5.0 0.04 0.28 0.28 72 1028.0
20260506224109 60 10 1.0 8.0 0.04 0.28 0.28 72 1028.1